Weather History for KBKE - January, 2013

Change the Weather History Date:

Sunday, January 27, 2013

  Actual Average Record
Temperature  
Mean Temperature 25 °F 26 °F  
Max Temperature 33 °F 35 °F 51 °F (1983)
Min Temperature 17 °F 17 °F -24 °F (1957)
Degree Days  
Heating Degree Days 40 39  
Month to date heating degree days 1335 1084  
Since 1 July heating degree days 4320 4369  
Cooling Degree Days 0 0  
Month to date cooling degree days 0 0  
Year to date cooling degree days 0 0  
Moisture  
Dew Point 25 °F    
Average Humidity 85    
Maximum Humidity 92    
Minimum Humidity 78    
Precipitation  
Precipitation T in 0.02 in 0.38 in (1965)
Month to date precipitation 0.76 0.71  
Year to date precipitation 0.76 0.71  
Sea Level Pressure  
Sea Level Pressure 30.00 in    
Wind  
Wind Speed 2 mph (WSW)    
Max Wind Speed 12 mph    
Max Gust Speed 14 mph    
Visibility 8 miles    
Events Snow    
T = Trace of Precipitation, MM = Missing Value Source: NWS Daily Summary

Daily Weather History Graph

Daily Weather History Graph

Search for Another Location

Airport or City:

Trip Planner

Search our weather history database for the weather conditions in past years. The results will help you decide how hot, cold, wet, or windy it might be!

Date:

Astronomy

Jan. 27, 2013 Rise Set
Actual Time 7:15 AM PST 4:53 PM PST
Civil Twilight 6:44 AM PST 5:24 PM PST
Nautical Twilight 6:08 AM PST 6:00 PM PST
Astronomical Twilight 5:34 AM PST 6:34 PM PST
Moon 5:56 PM PST (1/27) 7:07 AM PST (1/27)
Length of Visible Light 10h 40m
Length of Day
9h 37m
Full, 100% of the Moon is Illuminated
Jan 27
Full
Feb 3
Last Quarter
Feb 9
New
Feb 17
First Quarter
Feb 25
Full

Hourly Weather History & Observations

Time (PST) Temp. Windchill Dew Point Humidity Pressure Visibility Wind Dir Wind Speed Gust Speed Precip Events Conditions
12:53 AM 25.0 °F 20.7 °F 23.0 °F 92% 29.99 in 10.0 mi South 3.5 mph - N/A   Overcast
1:15 AM 26.6 °F - 24.8 °F 93% 29.93 in 10.0 mi Calm Calm - N/A   Overcast
1:38 AM 26.6 °F 22.6 °F 24.8 °F 93% 29.93 in 10.0 mi SSW 3.5 mph - N/A   Overcast
1:53 AM 26.1 °F 20.5 °F 24.1 °F 92% 29.99 in 10.0 mi SSW 4.6 mph - N/A   Overcast
2:53 AM 27.0 °F 21.6 °F 24.1 °F 89% 30.01 in 10.0 mi WSW 4.6 mph - N/A   Mostly Cloudy
3:03 AM 26.6 °F 22.6 °F 24.8 °F 93% 29.94 in 10.0 mi WSW 3.5 mph - N/A   Mostly Cloudy
3:53 AM 25.0 °F - 23.0 °F 92% 30.01 in 10.0 mi Calm Calm - N/A   Scattered Clouds
4:53 AM 25.0 °F - 23.0 °F 92% 30.02 in 10.0 mi Calm Calm - N/A   Partly Cloudy
5:53 AM 24.1 °F 17.0 °F 21.9 °F 91% 30.03 in 10.0 mi WSW 5.8 mph - N/A   Overcast
6:53 AM 24.1 °F 19.7 °F 21.0 °F 88% 30.03 in 10.0 mi South 3.5 mph - N/A   Mostly Cloudy
7:53 AM 24.1 °F - 21.0 °F 88% 30.04 in 10.0 mi Calm Calm - N/A   Partly Cloudy
8:53 AM 28.0 °F - 24.1 °F 85% 30.06 in 10.0 mi Calm Calm - N/A   Overcast
9:53 AM 28.0 °F 24.2 °F 25.0 °F 88% 30.06 in 10.0 mi SW 3.5 mph - 0.00 in   Overcast
10:53 AM 32.0 °F 25.6 °F 26.1 °F 79% 30.06 in 10.0 mi WNW 6.9 mph - N/A   Partly Cloudy
11:53 AM 32.0 °F 27.5 °F 26.1 °F 79% 30.04 in 10.0 mi West 4.6 mph - N/A   Partly Cloudy
12:44 PM 33.8 °F 25.3 °F 26.6 °F 75% 29.95 in 2.0 mi NNW 11.5 mph - 0.00 in Snow Light Snow
12:51 PM 30.2 °F 23.4 °F 28.4 °F 93% 29.95 in 1.0 mi NNW 6.9 mph - 0.00 in Snow Light Snow
12:53 PM 32.0 °F 25.6 °F 28.0 °F 85% 30.02 in 1.0 mi NW 6.9 mph - 0.00 in Snow Light Snow
1:06 PM 30.2 °F 24.3 °F 26.6 °F 86% 29.94 in 3.0 mi West 5.8 mph - 0.00 in Snow Light Snow
1:16 PM 32.0 °F 26.4 °F 28.4 °F 87% 29.94 in 9.0 mi West 5.8 mph - 0.00 in   Scattered Clouds
1:42 PM 30.2 °F 25.4 °F 26.6 °F 86% 29.94 in 2.0 mi WNW 4.6 mph - 0.00 in Snow Light Snow
1:47 PM 30.2 °F 24.3 °F 26.6 °F 86% 29.93 in 3.0 mi WSW 5.8 mph - 0.00 in Snow Light Snow
1:53 PM 30.9 °F 24.3 °F 27.0 °F 85% 30.01 in 9.0 mi WSW 6.9 mph - 0.00 in   Mostly Cloudy
2:53 PM 32.0 °F 27.5 °F 27.0 °F 82% 30.02 in 7.0 mi WNW 4.6 mph - 0.00 in Snow Light Snow
3:53 PM 30.0 °F - 27.0 °F 88% 30.04 in 10.0 mi Calm Calm - 0.00 in   Mostly Cloudy
4:37 PM 30.2 °F 26.7 °F 26.6 °F 86% 29.96 in 10.0 mi West 3.5 mph - 0.00 in   Mostly Cloudy
4:53 PM 28.9 °F - 26.1 °F 89% 30.05 in 10.0 mi Calm Calm - 0.00 in   Scattered Clouds
5:34 PM 28.4 °F 24.6 °F 24.8 °F 86% 29.97 in 10.0 mi NNE 3.5 mph - N/A   Mostly Cloudy
5:53 PM 28.9 °F - 27.0 °F 92% 30.06 in 10.0 mi Calm Calm - N/A   Overcast
6:24 PM 30.2 °F - 26.6 °F 86% 29.97 in 10.0 mi Calm Calm - N/A   Overcast
6:53 PM 30.0 °F - 26.1 °F 85% 30.05 in 5.0 mi Calm Calm - 0.00 in Snow Light Snow
7:53 PM 26.1 °F - 23.0 °F 88% 30.06 in 10.0 mi Calm Calm - 0.00 in   Clear
8:53 PM 24.1 °F - 21.9 °F 91% 30.05 in 10.0 mi Calm Calm - N/A   Scattered Clouds
9:53 PM 21.0 °F - 19.9 °F 96% 30.05 in 10.0 mi Calm Calm - N/A   Clear
10:53 PM 21.9 °F - 19.0 °F 89% 30.04 in 10.0 mi Calm Calm - N/A   Scattered Clouds
11:53 PM 18.0 °F 12.7 °F 15.1 °F 88% 30.04 in 10.0 mi SSW 3.5 mph - N/A   Scattered Clouds